This demonstration page uses our WeatherBlox Daily Observations layout. Learn more.

Left ArrowRight Arrow

39.01783, -85.05884

Hourly Observations for September 20, 2017

Temp ( °F °C ) Dew Point ( °F °C ) Humidity (%) Winds ( mph kmh ) Pressure ( in mb ) Visibility ( mi km ) Precip ( " mm )
12:52 am 00:52 Clear 65 18.3 65 18.3 100 100 S 6 9 29.95 1014 8 13 0.00 0.00
1:52 am 01:52 Clear 65 18.3 65 18.3 100 100 S 6 9 29.95 1014 7 11 0.00 0.00
2:42 am 02:42 Clear with Mist and Fog 65 18.3 65 18.3 100 100 Calm 29.94 1014 5 8 0.00 0.00
2:52 am 02:52 Clear with Patchy Fog 66 18.9 66 18.9 100 100 Calm 29.95 1014 5 8 0.00 0.00
3:45 am 03:45 Mostly Clear with Patchy Fog 63 17.2 63 17.2 100 100 Calm 29.97 1015 5 8 0.00 0.00
3:52 am 03:52 Mostly Clear with Patchy Fog 64 17.8 64 17.8 100 100 Calm 29.94 1014 5 8 0.00 0.00
4:52 am 04:52 Partly Cloudy with Patchy Fog 62 16.7 62 16.7 100 100 S 5 7 29.95 1014 4 6 0.00 0.00
5:52 am 05:52 Mostly Clear with Patchy Fog 64 17.8 64 17.8 100 100 Calm 29.96 1014 5 8 0.00 0.00
6:52 am 06:52 Mostly Clear with Mist and Fog 65 18.3 65 18.3 100 100 Calm 29.98 1015 5 8 0.00 0.00
7:52 am 07:52 Partly Cloudy with Mist and Fog 65 18.3 65 18.3 100 100 Calm 30.01 1016 3 5 0.00 0.00
8:52 am 08:52 Mostly Cloudy with Mist and Fog 68 20 68 20 100 100 S 3 6 30.03 1017 6 10 0.00 0.00
9:04 am 09:04 Mostly Cloudy with Mist and Fog 69 20.6 69 20.6 100 100 S 3 6 30.00 1016 6 10 0.00 0.00
9:52 am 09:52 Mostly Cloudy 71 21.7 71 21.7 100 100 SSW 7 11 30.03 1017 7 11 0.00 0.00
10:52 am 10:52 Partly Cloudy 75 23.9 73 22.8 94 94 VRB 3 6 30.03 1017 10 16 0.00 0.00
11:52 am 11:52 Mostly Cloudy 78 25.6 72 22.2 82 82 SW 7 11 30.02 1017 9 14 0.00 0.00
12:52 pm 12:52 Mostly Cloudy 81 27.2 71 21.7 72 72 SSW 5 7 30.01 1016 10 16 0.00 0.00
1:52 pm 13:52 Mostly Cloudy 83 28.3 71 21.7 67 67 S 9 15 30.00 1016 10 16 0.00 0.00
2:52 pm 14:52 Mostly Cloudy 83 28.3 69 20.6 63 63 VRB 7 11 29.99 1016 10 16 0.00 0.00
3:52 pm 15:52 Mostly Cloudy 85 29.4 70 21.1 61 61 VRB 5 7 29.98 1015 10 16 0.00 0.00
4:52 pm 16:52 Mostly Cloudy 84 28.9 69 20.6 61 61 WSW 7 11 29.97 1015 10 16 0.00 0.00
5:52 pm 17:52 Partly Cloudy 84 28.9 70 21.1 63 63 WSW 7 11 29.98 1015 10 16 0.00 0.00
6:52 pm 18:52 Mostly Cloudy 81 27.2 67 19.4 62 62 WSW 3 6 29.98 1015 10 16 0.00 0.00
7:52 pm 19:52 Partly Cloudy 74 23.3 70 21.1 88 88 S 5 7 29.98 1015 9 14 0.00 0.00
8:52 pm 20:52 Mostly Clear 74 23.3 69 20.6 85 85 Calm 29.99 1016 10 16 0.00 0.00
9:52 pm 21:52 Clear 73 22.8 69 20.6 87 87 Calm 30.00 1016 9 14 0.00 0.00
10:52 pm 22:52 Clear 70 21.1 69 20.6 97 97 S 6 9 30.00 1016 8 13 0.00 0.00
11:52 pm 23:52 Clear 72 22.2 69 20.6 91 91 S 5 7 30.00 1016 9 14 0.00 0.00

Powered by AerisWeather